Location: Edinburgh
(55.9500°N, 3.1600°W)
Time: 06:01:17
(UTC+00:00)

Vanguard 1 - Visible Passes

Search period start: 11 December 2017 00:00
Search period end: 21 December 2017 00:00
Orbit: 650 x 3833 km, 34.2° (Epoch: 10 December)

Date Brightness Start Highest point End Pass type
(mag) Time Alt. Az. Time Alt. Az. Time Alt. Az.
14 Dec 14.9 06:50:00 10° SSE 06:58:19 13° SE 07:05:40 10° ESE visible
15 Dec 14.7 07:06:37 10° S 07:18:44 18° SE 07:28:53 10° ESE visible
16 Dec 14.6 07:24:41 10° S 07:39:13 22° SSE 07:50:56 10° ESE visible
17 Dec 14.8 05:33:31 10° SE 05:38:39 11° SE 05:43:33 10° ESE visible
17 Dec 14.5 07:43:32 10° SSW 07:59:45 26° SSE 08:12:27 10° ESE visible
18 Dec 14.6 05:47:59 10° SSE 05:58:52 16° SE 06:08:45 10° ESE visible
19 Dec 14.5 06:05:14 10° S 06:19:09 20° SE 06:31:30 10° ESE visible
20 Dec 14.4 06:23:35 10° SSW 06:39:31 24° SSE 06:53:24 10° ESE visible
